CW8392 Weather Reports


Display with metric or nautical units.
time (UTC)temp
F
wind
direction
speed
MPH
gust
MPH
rain 1hr
in
rain 24hr
in
rain mn
in
humidity
%
barometer
mb
20171216111206 42 249 0.0 8.0 0.00 0.71 0.02 91 1012.2
20171216110658 41 254 0.0 8.0 0.00 0.71 0.02 91 1012.3
20171216110213 41 257 3.0 8.0 0.00 0.71 0.02 91 1012.3
20171216105717 41 253 2.0 8.0 0.00 0.71 0.02 91 1012.3
20171216105217 41 276 0.0 9.0 0.00 0.71 0.02 91 1012.2
20171216104717 40 275 0.0 0.0 0.00 0.71 0.02 92 1012.2
20171216104209 40 266 0.0 0.0 0.00 0.71 0.02 92 1012.2
20171216103709 40 274 0.0 0.0 0.00 0.71 0.02 92 1012.1
20171216103202 40 247 0.0 0.0 0.00 0.71 0.02 92 1012.0
20171216102711 40 269 0.0 4.0 0.00 0.71 0.02 93 1012.0
20171216102218 40 211 1.0 4.0 0.00 0.71 0.02 93 1011.9
20171216101714 40 211 0.0 3.0 0.00 0.71 0.02 93 1012.0
20171216101229 40 211 1.0 5.0 0.00 0.71 0.02 93 1012.0
20171216100241 39 209 0.0 0.0 0.00 0.71 0.02 94 1011.9
20171216095807 39 209 0.0 0.0 0.00 0.71 0.02 93 1011.8
20171216095235 38 209 0.0 4.0 0.00 0.71 0.02 93 1011.8
20171216094608 38 209 2.0 4.0 0.00 0.71 0.02 93 1011.7
20171216094109 38 209 0.0 2.0 0.00 0.71 0.02 93 1011.7
20171216093624 38 209 0.0 2.0 0.00 0.71 0.02 93 1011.7
20171216093135 38 209 0.0 0.0 0.04 0.71 0.02 93 1011.6
20171216092628 38 234 0.0 0.0 0.04 0.71 0.02 93 1011.6
20171216092136 38 334 0.0 0.0 0.04 0.71 0.02 93 1011.4
20171216091624 37 334 0.0 0.0 0.04 0.71 0.02 93 1011.4
20171216091143 37 334 0.0 0.0 0.04 0.71 0.02 93 1011.3
20171216090631 37 333 0.0 0.0 0.04 0.71 0.02 93 1011.1
20171216090136 37 333 0.0 0.0 0.04 0.71 0.02 93 1011.1
20171216085707 37 334 0.0 0.0 0.04 0.71 0.02 93 1011.0
20171216085145 37 338 0.0 0.0 0.04 0.71 0.02 93 1011.0
20171216084653 37 338 0.0 0.0 0.04 0.71 0.02 93 1010.9
20171216084138 37 302 0.0 0.0 0.04 0.71 0.02 93 1010.9
20171216083644 37 278 0.0 6.0 0.04 0.71 0.02 93 1010.7
20171216083157 37 269 0.0 9.0 0.00 0.67 0.02 93 1010.5
20171216082656 37 236 2.0 9.0 0.00 0.67 0.02 92 1010.5
20171216082152 37 277 0.0 0.0 0.00 0.67 0.02 93 1010.4
20171216081655 37 277 0.0 0.0 0.00 0.67 0.02 92 1010.3
20171216081206 37 277 0.0 0.0 0.00 0.67 0.02 92 1010.3
20171216080700 37 277 0.0 0.0 0.00 0.67 0.02 92 1010.1
20171216080211 36 277 0.0 0.0 0.00 0.67 0.02 92 1010.0
20171216075734 36 277 0.0 0.0 0.00 0.67 0.02 92 1010.1
20171216075216 36 277 0.0 0.0 0.00 0.67 0.02 92 1009.9
20171216074715 36 277 0.0 0.0 0.00 0.67 0.02 91 1009.8
20171216074220 37 277 0.0 0.0 0.00 0.67 0.02 91 1009.8
20171216073722 37 277 0.0 0.0 0.00 0.67 0.02 91 1009.7
20171216073226 37 277 0.0 0.0 0.00 0.67 0.02 91 1009.6
20171216072723 37 277 0.0 0.0 0.00 0.67 0.02 91 1009.5
20171216072216 37 277 0.0 0.0 0.00 0.67 0.02 91 1009.5
20171216071724 37 277 0.0 0.0 0.00 0.67 0.02 92 1009.4
20171216071222 37 288 0.0 1.0 0.00 0.67 0.02 92 1009.3
20171216070722 37 292 0.0 1.0 0.00 0.67 0.02 92 1009.3
20171216070222 37 302 0.0 1.0 0.00 0.67 0.02 92 1009.2
20171216065738 37 308 0.0 7.0 0.00 0.67 0.02 92 1009.1
20171216065237 37 295 0.0 7.0 0.00 0.67 0.02 92 1009.1
20171216064622 37 299 4.0 7.0 0.00 0.67 0.02 92 1008.9
20171216064124 37 289 0.0 6.0 0.00 0.67 0.02 92 1008.9
20171216063628 37 305 0.0 5.0 0.00 0.67 0.02 93 1008.9
20171216063131 36 307 1.0 7.0 0.00 0.67 0.02 93 1008.8
20171216062625 36 286 4.0 7.0 0.00 0.67 0.02 93 1008.7
20171216062139 36 279 1.0 5.0 0.00 0.67 0.02 93 1008.7
20171216061635 37 294 0.0 6.0 0.00 0.67 0.02 93 1008.6
20171216061139 37 277 0.0 6.0 0.00 0.67 0.02 93 1008.5
20171216060626 37 293 0.0 0.0 0.00 0.67 0.02 94 1008.3
20171216060150 37 298 0.0 0.0 0.00 0.67 0.02 94 1008.3
20171216055704 37 291 0.0 1.0 0.00 0.67 0.02 94 1008.2
20171216055133 37 292 0.0 1.0 0.00 0.67 0.02 94 1008.2
20171216054639 37 290 0.0 4.0 0.00 0.67 0.02 94 1008.1
20171216054157 37 282 0.0 4.0 0.00 0.67 0.02 94 1008.1
20171216053201 36 273 2.0 8.0 0.00 0.67 0.02 94 1008.1
20171216052654 37 279 1.0 5.0 0.00 0.67 0.02 94 1008.0
20171216052153 37 290 0.0 0.0 0.00 0.67 0.02 95 1007.9
20171216051654 36 311 0.0 0.0 0.00 0.67 0.02 95 1007.9
20171216051202 36 323 0.0 7.0 0.00 0.67 0.02 95 1007.8
20171216050707 36 332 1.0 7.0 0.00 0.67 0.02 94 1007.9
20171216050156 36 298 0.0 4.0 0.00 0.67 0.02 94 1007.8
20171216045716 36 292 0.0 0.0 0.00 0.67 0.02 94 1007.7
20171216045217 36 292 0.0 3.0 0.00 0.67 0.02 94 1007.6
20171216044718 36 292 1.0 3.0 0.00 0.67 0.02 94 1007.6
20171216044211 36 292 0.0 3.0 0.00 0.67 0.02 94 1007.5
20171216043714 36 292 0.0 6.0 0.00 0.67 0.02 94 1007.5
20171216043229 36 283 1.0 6.0 0.00 0.67 0.02 94 1007.5
20171216042717 37 290 4.0 6.0 0.00 0.67 0.02 95 1007.5
20171216042227 37 296 1.0 3.0 0.00 0.67 0.02 95 1007.4
20171216041727 37 294 0.0 2.0 0.04 0.67 0.02 95 1007.3
20171216041238 37 294 0.0 1.0 0.04 0.67 0.02 95 1007.3
20171216040724 37 294 0.0 0.0 0.04 0.71 0.02 95 1007.3
20171216040234 37 294 0.0 6.0 0.04 0.71 0.02 95 1007.2
20171216035800 37 293 2.0 6.0 0.04 0.71 0.02 95 1007.1
20171216035123 38 286 1.0 9.0 0.04 0.71 0.02 95 1007.0
20171216034629 38 318 2.0 9.0 0.04 0.71 0.02 95 1007.1
20171216034123 38 303 0.0 0.0 0.04 0.71 0.02 96 1007.0
20171216033630 38 311 0.0 0.0 0.04 0.71 0.02 96 1006.9
20171216033128 38 311 0.0 9.0 0.04 0.71 0.02 96 1006.8
20171216032620 38 298 0.0 10.0 0.04 0.71 0.02 96 1006.8
20171216032135 37 317 2.0 17.0 0.04 0.71 0.02 96 1006.9
20171216031646 37 5 5.0 17.0 0.00 0.67 0.01 96 1006.9
20171216030637 36 294 0.0 0.0 0.00 0.75 0.01 96 1006.6
20171216030152 36 293 0.0 0.0 0.00 0.75 0.01 96 1006.4
20171216025701 36 293 0.0 0.0 0.00 0.75 0.01 96 1006.4
20171216025143 36 307 0.0 0.0 0.00 0.75 0.01 96 1006.3
20171216024648 36 296 0.0 0.0 0.00 0.75 0.01 96 1006.2
20171216024141 36 274 0.0 0.0 0.00 0.75 0.01 96 1006.2
20171216023642 36 271 0.0 0.0 0.00 0.75 0.01 96 1006.1
20171216023152 36 265 0.0 0.0 0.00 0.75 0.01 96 1006.0
20171216022653 36 265 0.0 0.0 0.00 0.75 0.01 96 1006.1
20171216022201 36 265 0.0 0.0 0.00 0.75 0.01 96 1006.1
20171216021655 36 265 0.0 0.0 0.00 0.75 0.01 96 1006.0
20171216021210 36 265 0.0 0.0 0.00 0.75 0.01 96 1005.9
20171216020700 36 265 0.0 0.0 0.00 0.75 0.01 96 1005.9
20171216020210 36 264 0.0 0.0 0.00 0.75 0.01 96 1005.7
20171216015716 37 264 0.0 0.0 0.00 0.75 0.01 96 1005.6
20171216015213 37 241 0.0 0.0 0.00 0.75 0.01 96 1005.5
20171216014715 37 241 0.0 0.0 0.00 0.75 0.01 96 1005.5
20171216014225 37 241 0.0 0.0 0.00 0.75 0.01 96 1005.4
20171216013713 37 241 0.0 0.0 0.00 0.75 0.01 96 1005.3
20171216013222 37 240 0.0 0.0 0.00 0.75 0.01 96 1005.3
20171216012725 37 240 0.0 0.0 0.00 0.75 0.01 96 1005.2
20171216011724 37 240 0.0 0.0 0.00 0.75 0.01 96 1005.0
20171216011220 37 241 0.0 0.0 0.04 0.75 0.01 96 1004.9
20171216010733 37 240 0.0 0.0 0.04 0.75 0.01 96 1004.8
20171216010237 37 240 0.0 0.0 0.04 0.75 0.01 96 1004.7
20171216005804 37 235 0.0 0.0 0.04 0.75 0.01 96 1004.7
20171216005107 37 233 0.0 0.0 0.04 0.75 0.01 96 1004.5
20171216004610 37 270 0.0 0.0 0.04 0.75 0.01 96 1004.5
20171216004115 37 278 0.0 0.0 0.04 0.75 0.01 96 1004.6
20171216003636 37 279 0.0 0.0 0.04 0.75 0.01 96 1004.5
20171216003127 37 279 0.0 0.0 0.04 0.75 0.01 96 1004.5
20171216002637 37 294 0.0 0.0 0.04 0.75 0.01 96 1004.4
20171216002128 37 294 0.0 0.0 0.04 0.75 0.01 96 1004.4
20171216001631 37 294 0.0 0.0 0.04 0.75 0.01 96 1004.4
20171216001132 36 294 0.0 0.0 0.00 0.71 0.00 96 1004.4
20171216000648 36 294 0.0 0.0 0.00 0.71 0.00 96 1004.3
20171216000140 36 295 0.0 0.0 0.00 0.71 0.00 96 1004.3
20171215235711 36 303 0.0 0.0 0.00 0.71 0.00 96 1004.2
20171215235155 36 303 0.0 0.0 0.00 0.71 0.00 96 1004.1
20171215234643 36 303 0.0 0.0 0.00 0.71 0.00 96 1004.1
20171215234149 36 303 0.0 0.0 0.00 0.71 0.00 96 1004.0
20171215233700 36 303 0.0 0.0 0.00 0.71 0.00 96 1004.0
20171215233153 36 303 0.0 0.0 0.00 0.71 0.00 95 1004.0
20171215232649 36 303 0.0 0.0 0.00 0.71 0.00 95 1004.0
20171215232202 36 303 0.0 0.0 0.00 0.71 0.00 96 1003.9
20171215231651 36 303 0.0 0.0 0.00 0.71 0.00 95 1003.9
20171215231212 36 303 0.0 0.0 0.00 0.71 0.00 95 1003.9
20171215230713 36 303 0.0 0.0 0.00 0.71 0.14 95 1003.8
20171215230210 36 303 0.0 0.0 0.00 0.71 0.14 95 1003.8
20171215225730 36 303 0.0 0.0 0.00 0.71 0.14 95 1003.7
20171215225221 36 303 0.0 0.0 0.00 0.71 0.14 95 1003.6
20171215224707 35 303 0.0 0.0 0.00 0.71 0.14 95 1003.5
20171215224214 35 303 0.0 0.0 0.00 0.71 0.14 95 1003.3
20171215223725 35 303 0.0 0.0 0.00 0.71 0.14 95 1003.3
20171215223229 36 303 0.0 0.0 0.00 0.71 0.14 95 1003.2
20171215222733 36 303 0.0 0.0 0.00 0.71 0.14 95 1003.1
20171215222228 36 303 0.0 0.0 0.00 0.71 0.14 95 1003.0
20171215221729 36 303 0.0 0.0 0.00 0.71 0.14 95 1003.1
20171215221233 35 349 0.0 0.0 0.00 0.71 0.14 95 1003.1
20171215220238 35 349 0.0 0.0 0.00 0.71 0.14 95 1002.8
20171215215736 35 349 0.0 0.0 0.00 0.71 0.14 95 1002.8
20171215215109 35 349 0.0 0.0 0.00 0.71 0.14 95 1002.8
20171215214624 35 349 0.0 0.0 0.00 0.71 0.14 95 1002.8
20171215214118 35 349 0.0 0.0 0.00 0.71 0.14 95 1002.7
20171215213630 35 349 0.0 0.0 0.00 0.71 0.14 95 1002.5
20171215213125 36 349 0.0 0.0 0.00 0.71 0.14 95 1002.4
20171215212631 36 349 0.0 0.0 0.00 0.71 0.14 95 1002.5
20171215212145 36 350 0.0 0.0 0.00 0.71 0.14 95 1002.4
20171215211639 36 350 0.0 0.0 0.00 0.71 0.14 95 1002.2
20171215211137 36 350 0.0 0.0 0.00 0.71 0.14 95 1002.2
20171215210648 36 351 0.0 0.0 0.00 0.71 0.14 95 1002.2
20171215210135 36 355 0.0 0.0 0.00 0.71 0.14 95 1002.0
20171215205638 36 355 0.0 0.0 0.00 0.71 0.14 95 1002.0
20171215205212 37 355 0.0 0.0 0.00 0.71 0.14 95 1002.0
20171215204640 37 355 0.0 0.0 0.00 0.71 0.14 95 1002.0
20171215204150 38 355 0.0 0.0 0.00 0.71 0.14 95 1001.9
20171215203646 38 355 0.0 0.0 0.00 0.71 0.14 95 1001.9
20171215203203 38 355 0.0 0.0 0.00 0.71 0.14 95 1001.8
20171215202647 38 355 0.0 0.0 0.00 0.71 0.14 95 1001.8
20171215202159 38 355 0.0 0.0 0.00 0.71 0.14 95 1001.7
20171215201704 38 355 0.0 0.0 0.00 0.71 0.14 95 1001.6
20171215201206 37 355 0.0 0.0 0.00 0.71 0.14 95 1001.6
20171215200710 37 355 0.0 0.0 0.00 0.71 0.14 95 1001.5
20171215200218 37 355 0.0 0.0 0.00 0.71 0.14 95 1001.4
20171215195719 37 355 0.0 0.0 0.00 0.71 0.14 95 1001.3
20171215195209 37 355 0.0 0.0 0.00 0.71 0.14 95 1001.2
20171215194727 37 355 0.0 0.0 0.00 0.71 0.14 95 1001.1
20171215194228 37 355 0.0 0.0 0.00 0.71 0.14 94 1001.0
20171215193710 37 355 0.0 0.0 0.00 0.71 0.14 94 1000.9
20171215193228 37 355 0.0 0.0 0.00 0.71 0.14 95 1000.7
20171215192713 37 355 327.0 327.0 0.00 0.00 0.14 95 1000.5
20171215192229 38 355 0.0 0.0 0.00 0.71 0.14 95 1000.4
20171215191726 38 355 0.0 0.0 0.00 0.71 0.14 94 1000.3
20171215191241 38 355 0.0 0.0 0.00 0.71 0.14 95 1000.3
20171215190241 38 355 0.0 0.0 0.00 0.71 0.14 95 1000.2
20171215185759 39 355 0.0 0.0 0.00 0.71 0.14 95 1000.1
20171215185118 39 49 0.0 0.0 0.00 0.71 0.14 95 1000.1
20171215184632 39 50 0.0 0.0 0.00 0.71 0.14 95 1000.0
20171215184126 39 50 0.0 0.0 0.00 0.71 0.14 95 999.9
20171215183628 39 50 0.0 0.0 0.00 0.71 0.14 95 999.8
20171215183120 39 50 0.0 0.0 0.00 0.71 0.14 95 999.8
20171215182634 39 50 0.0 0.0 0.00 0.71 0.14 95 999.7
20171215182133 39 50 0.0 0.0 0.00 0.71 0.14 95 999.6
20171215181631 39 51 0.0 0.0 0.00 0.71 0.14 95 999.5
20171215181136 39 51 0.0 0.0 0.00 0.71 0.14 95 999.3
20171215180635 39 51 0.0 0.0 0.00 0.71 0.14 95 999.3
20171215180139 39 51 0.0 0.0 0.00 0.71 0.14 95 999.2
20171215175703 39 51 0.0 0.0 0.00 0.71 0.14 95 999.1
20171215175157 39 51 0.0 0.0 0.00 0.71 0.14 95 999.1
20171215174642 39 51 0.0 0.0 0.00 0.71 0.14 95 999.1
20171215173703 40 51 0.0 0.0 0.00 0.71 0.14 95 998.9
20171215173204 40 116 0.0 0.0 0.00 0.71 0.14 95 998.7
20171215172659 40 116 0.0 0.0 0.00 0.71 0.14 95 998.6
20171215172206 40 116 0.0 0.0 0.00 0.71 0.14 95 998.5
20171215171658 40 116 0.0 0.0 0.00 0.71 0.14 95 998.4
20171215171218 40 116 0.0 0.0 0.00 0.71 0.14 95 998.3
20171215170717 40 116 0.0 0.0 0.00 0.71 0.14 95 998.2
20171215170215 39 116 0.0 0.0 0.00 0.71 0.14 95 998.1
20171215165723 39 116 0.0 0.0 0.00 0.71 0.14 95 998.0
20171215165219 39 116 0.0 0.0 0.00 0.71 0.14 95 998.0
20171215164720 39 116 0.0 0.0 0.00 0.71 0.14 95 997.9
20171215164211 39 116 0.0 0.0 0.00 0.71 0.14 95 997.8
20171215163715 39 116 0.0 0.0 0.00 0.71 0.14 95 997.7
20171215163213 39 116 0.0 0.0 0.00 0.71 0.14 95 997.6
20171215162722 39 116 0.0 0.0 0.00 0.71 0.14 95 997.6
20171215162230 39 116 0.0 0.0 0.00 0.71 0.14 95 997.5
20171215161727 39 116 0.0 0.0 0.00 0.71 0.14 95 997.5
20171215161243 39 116 0.0 0.0 0.00 0.71 0.14 95 997.3
20171215160741 39 116 0.0 0.0 0.00 0.71 0.14 95 997.2
20171215160248 39 116 0.0 0.0 0.00 0.71 0.14 95 997.1
20171215155617 39 116 0.0 0.0 0.00 0.71 0.14 95 997.1
20171215155124 39 116 0.0 0.0 0.00 0.71 0.14 95 997.0
20171215154629 39 116 0.0 0.0 0.00 0.71 0.14 95 996.9
20171215154122 39 116 0.0 0.0 0.00 0.71 0.14 95 996.9
20171215153628 39 116 0.0 0.0 0.00 0.71 0.14 95 996.7
20171215153132 39 116 0.0 0.0 0.00 0.71 0.14 95 996.6
20171215152633 39 116 0.0 0.0 0.00 0.71 0.14 95 996.6
20171215152148 39 116 0.0 0.0 0.00 0.71 0.14 95 996.5
20171215151631 39 116 0.0 0.0 0.00 0.71 0.14 95 996.4
20171215151133 39 116 0.0 0.0 0.00 0.75 0.14 95 996.3
20171215150652 39 116 0.0 1.0 0.00 0.75 0.14 95 996.2
20171215150145 39 116 0.0 1.0 0.00 0.75 0.14 94 996.2
20171215145714 39 117 0.0 1.0 0.00 0.75 0.14 94 996.1
20171215145146 39 116 0.0 1.0 0.00 0.75 0.14 94 996.1
20171215144641 39 121 0.0 1.0 0.00 0.75 0.14 95 996.0
20171215144145 39 121 0.0 0.0 0.00 0.75 0.14 95 996.0
20171215143701 39 128 0.0 0.0 0.04 0.75 0.14 95 995.9
20171215143201 39 163 0.0 1.0 0.04 0.75 0.14 95 995.8
20171215142651 39 163 0.0 1.0 0.04 0.75 0.14 95 995.7
20171215142152 39 163 0.0 3.0 0.04 0.75 0.14 95 995.6
20171215141712 39 163 0.0 4.0 0.04 0.75 0.14 95 995.6
20171215141206 39 173 2.0 4.0 0.04 0.75 0.14 95 995.5
20171215140718 39 165 0.0 0.0 0.04 0.75 0.14 94 995.5
20171215135736 39 165 0.0 0.0 0.04 0.75 0.14 94 995.3
20171215135218 39 165 0.0 0.0 0.04 0.75 0.14 95 995.2
20171215134718 40 165 0.0 0.0 0.08 0.75 0.14 95 995.1
20171215134217 40 165 0.0 0.0 0.12 0.75 0.14 95 995.2
20171215133723 40 198 0.0 0.0 0.08 0.71 0.13 95 995.1
20171215133226 40 198 0.0 0.0 0.12 0.71 0.13 95 995.1
20171215132735 40 216 0.0 0.0 0.16 0.71 0.13 95 995.0
20171215132220 40 216 0.0 0.0 0.16 0.71 0.13 95 995.0
20171215131719 40 235 0.0 6.0 0.24 0.71 0.13 95 995.0
20171215131226 40 199 4.0 6.0 0.28 0.71 0.13 95 995.0
20171215130741 40 222 0.0 2.0 0.35 0.71 0.13 95 994.9
20171215130230 40 189 0.0 0.0 0.39 0.71 0.13 95 994.8
20171215125642 40 186 0.0 0.0 0.43 0.71 0.13 94 994.8
20171215125132 40 226 0.0 1.0 0.39 0.67 0.13 94 994.7
20171215124623 40 158 0.0 1.0 0.43 0.67 0.13 94 994.7
20171215124129 39 184 0.0 3.0 0.43 0.63 0.12 94 994.7
20171215123634 39 184 0.0 3.0 0.43 0.63 0.12 94 994.7
20171215123125 39 184 0.0 1.0 0.43 0.59 0.11 94 994.6
20171215122642 39 184 0.0 2.0 0.39 0.55 0.10 94 994.5
20171215122142 39 184 0.0 3.0 0.35 0.51 0.09 94 994.5
20171215121645 39 184 1.0 5.0 0.31 0.47 0.09 94 994.5
20171215121132 39 186 0.0 0.0 0.28 0.43 0.08 94 994.5
20171215120648 40 192 0.0 6.0 0.20 0.35 0.06 94 994.4
20171215120144 40 212 0.0 7.0 0.16 0.31 0.06 94 994.3
20171215115145 40 248 3.0 5.0 0.12 0.28 0.05 94 994.1
20171215114157 40 237 0.0 4.0 0.04 0.20 0.03 94 994.0
20171215113703 40 168 0.0 1.0 0.04 0.20 0.03 94 994.0
20171215113202 40 182 0.0 7.0 0.00 0.16 0.02 94 994.0
20171215112654 40 194 1.0 7.0 0.00 0.16 0.02 94 993.9
20171215111703 40 164 0.0 8.0 0.00 0.16 0.02 94 993.9